N5CSU Weather Reports


Display with metric or nautical units.
time (UTC)temp
F
wind
direction
speed
MPH
gust
MPH
rain 1hr
in
rain 24hr
in
rain mn
in
humidity
%
barometer
mb
20260505121230 71 198 0.0 1.0 0.00 0.00 0.00 87 1004.8
20260505120726 71 197 0.0 0.0 0.00 0.00 0.00 87 1004.9
20260505120223 71 185 0.0 1.0 0.00 0.00 0.00 87 1004.7
20260505115721 71 203 0.0 0.0 0.00 0.00 0.00 87 1004.7
20260505115219 71 335 0.0 0.0 0.00 0.00 0.00 87 1004.4
20260505114716 71 190 0.0 0.0 0.00 0.00 0.00 87 1004.4
20260505114212 71 208 0.0 0.0 0.00 0.00 0.00 87 1004.4
20260505113709 71 187 0.0 0.0 0.00 0.00 0.00 87 1004.6
20260505113206 71 187 1.0 1.0 0.00 0.00 0.00 87 1004.3
20260505112702 71 187 0.0 0.0 0.00 0.00 0.00 87 1004.5
20260505112200 71 193 0.0 1.0 0.00 0.00 0.00 87 1004.7
20260505111659 71 205 1.0 1.0 0.00 0.00 0.00 86 1004.5
20260505111155 71 203 0.0 1.0 0.00 0.00 0.00 86 1004.5
20260505110651 71 200 0.0 0.0 0.00 0.00 0.00 86 1004.6
20260505110149 71 183 0.0 0.0 0.00 0.00 0.00 86 1004.7
20260505102125 71 197 1.0 2.0 0.00 0.00 0.00 85 1004.5
20260505101623 71 270 0.0 1.0 0.00 0.00 0.00 85 1004.7
20260505101119 71 192 1.0 1.0 0.00 0.00 0.00 85 1004.6
20260505100615 71 187 1.0 1.0 0.00 0.00 0.00 85 1004.7
20260505100113 71 276 1.0 1.0 0.00 0.00 0.00 85 1004.7
20260505095609 71 178 0.0 1.0 0.00 0.00 0.00 85 1004.7
20260505095106 71 203 0.0 1.0 0.00 0.00 0.00 85 1004.8
20260505094602 72 182 1.0 1.0 0.00 0.00 0.00 85 1004.9
20260505094058 72 197 0.0 1.0 0.00 0.00 0.00 85 1004.7
20260505093554 72 207 0.0 1.0 0.00 0.00 0.00 85 1004.7
20260505093052 72 151 0.0 0.0 0.00 0.00 0.00 85 1004.8
20260505092549 72 190 0.0 0.0 0.00 0.00 0.00 85 1004.9
20260505092048 71 215 1.0 2.0 0.00 0.00 0.00 85 1005.1
20260505091544 71 187 0.0 1.0 0.00 0.00 0.00 85 1005.1
20260505091043 71 252 1.0 2.0 0.00 0.00 0.00 85 1004.8
20260505090540 71 186 0.0 1.0 0.00 0.00 0.00 85 1005.0
20260505090038 71 190 0.0 0.0 0.00 0.00 0.00 85 1004.8
20260505085536 71 221 3.0 3.0 0.00 0.00 0.00 85 1004.9
20260505085034 71 232 0.0 0.0 0.00 0.00 0.00 86 1004.8
20260505084531 71 189 1.0 2.0 0.00 0.00 0.00 86 1005.0
20260505084029 71 236 1.0 1.0 0.00 0.00 0.00 86 1004.8
20260505083526 71 201 0.0 1.0 0.00 0.00 0.00 86 1005.0
20260505083023 71 203 0.0 0.0 0.00 0.00 0.00 86 1004.8
20260505082518 71 222 0.0 1.0 0.00 0.00 0.00 86 1005.1
20260505082015 71 195 0.0 0.0 0.00 0.00 0.00 86 1005.2
20260505081512 71 175 1.0 1.0 0.00 0.00 0.00 85 1005.1
20260505081009 71 209 0.0 1.0 0.00 0.00 0.00 85 1005.2
20260505080505 71 188 0.0 0.0 0.00 0.00 0.00 85 1005.2
20260505080001 71 192 0.0 1.0 0.00 0.00 0.00 85 1005.2
20260505075457 71 190 0.0 0.0 0.00 0.00 0.00 85 1005.4
20260505074955 71 191 0.0 0.0 0.00 0.00 0.00 85 1005.4
20260505074452 71 190 1.0 1.0 0.00 0.00 0.00 85 1005.4
20260505073949 71 181 1.0 1.0 0.00 0.00 0.00 84 1005.5
20260505073447 71 212 1.0 1.0 0.00 0.00 0.00 84 1005.6
20260505072943 71 215 1.0 2.0 0.00 0.00 0.00 84 1005.8
20260505072440 71 220 1.0 1.0 0.00 0.00 0.00 84 1005.9
20260505071936 72 190 1.0 2.0 0.00 0.00 0.00 83 1005.9
20260505071432 72 218 2.0 2.0 0.00 0.00 0.00 83 1006.0
20260505070930 72 194 2.0 3.0 0.00 0.00 0.00 83 1006.1
20260505070427 72 204 0.0 1.0 0.00 0.00 0.00 83 1006.0
20260505065922 72 196 0.0 0.0 0.00 0.00 0.00 83 1006.2
20260505065419 72 196 0.0 0.0 0.00 0.00 0.00 82 1006.2
20260505064916 72 201 0.0 0.0 0.00 0.00 0.00 82 1006.1
20260505064413 72 194 0.0 0.0 0.00 0.00 0.00 82 1006.2
20260505063911 72 197 2.0 3.0 0.00 0.00 0.00 82 1006.4
20260505063407 72 202 1.0 1.0 0.00 0.00 0.00 81 1006.5
20260505062904 72 185 0.0 0.0 0.00 0.00 0.00 81 1006.4
20260505062401 72 183 0.0 0.0 0.00 0.00 0.00 81 1006.4
20260505061858 73 203 0.0 0.0 0.00 0.00 0.00 81 1006.2
20260505061356 73 296 1.0 1.0 0.00 0.00 0.00 80 1006.4
20260505060853 73 192 0.0 0.0 0.00 0.00 0.00 80 1006.3
20260505060350 73 176 0.0 0.0 0.00 0.00 0.00 80 1006.3
20260505055846 73 203 0.0 0.0 0.00 0.00 0.00 79 1006.3
20260505055342 73 220 1.0 2.0 0.00 0.00 0.00 79 1006.4
20260505054839 73 206 0.0 0.0 0.00 0.00 0.00 79 1006.3
20260505054337 73 202 0.0 1.0 0.00 0.00 0.00 79 1006.4
20260505053835 73 197 0.0 1.0 0.00 0.00 0.00 79 1006.4
20260505053331 73 179 1.0 1.0 0.00 0.00 0.00 78 1006.4
20260505052828 73 190 1.0 3.0 0.00 0.00 0.00 78 1006.5
20260505052325 73 258 0.0 1.0 0.00 0.00 0.00 78 1006.4
20260505051823 73 188 0.0 1.0 0.00 0.00 0.00 77 1006.4
20260505051320 73 192 0.0 0.0 0.00 0.00 0.00 77 1006.7
20260505050818 73 179 1.0 1.0 0.00 0.00 0.00 77 1006.7
20260505050317 73 197 1.0 2.0 0.00 0.00 0.00 77 1006.6
20260505041746 74 187 0.0 0.0 0.00 0.00 0.00 75 1006.9
20260505041243 74 209 1.0 1.0 0.00 0.00 0.00 75 1006.8
20260505040740 74 221 0.0 0.0 0.00 0.00 0.00 75 1006.8
20260505040238 74 185 0.0 0.0 0.00 0.00 0.00 75 1006.9
20260505035734 74 199 0.0 0.0 0.00 0.00 0.00 75 1006.9
20260505035230 73 206 0.0 0.0 0.00 0.00 0.00 75 1006.7
20260505034727 74 186 0.0 0.0 0.00 0.00 0.00 75 1006.7
20260505034224 73 194 0.0 0.0 0.00 0.00 0.00 75 1006.7
20260505033721 73 207 0.0 0.0 0.00 0.00 0.00 75 1006.7
20260505033219 74 192 0.0 0.0 0.00 0.00 0.00 75 1006.7
20260505032717 74 210 0.0 0.0 0.00 0.00 0.00 74 1006.8
20260505032212 74 191 0.0 0.0 0.00 0.00 0.00 74 1006.8
20260505031710 74 198 0.0 0.0 0.00 0.00 0.00 74 1007.0
20260505031206 74 203 0.0 0.0 0.00 0.00 0.00 73 1007.1
20260505030703 74 192 0.0 0.0 0.00 0.00 0.00 73 1007.1
20260505030159 74 209 0.0 0.0 0.00 0.00 0.00 73 1006.9
20260505025655 74 205 0.0 0.0 0.00 0.00 0.00 73 1006.9
20260505025153 75 171 0.0 1.0 0.00 0.00 0.00 72 1007.0
20260505024651 75 159 1.0 1.0 0.00 0.00 0.00 72 1006.8
20260505024147 75 199 0.0 0.0 0.00 0.00 0.00 72 1006.9
20260505023645 75 157 0.0 0.0 0.00 0.00 0.00 72 1006.9
20260505023143 75 205 0.0 0.0 0.00 0.00 0.00 71 1006.5
20260505022640 75 195 0.0 0.0 0.00 0.00 0.00 71 1006.5
20260505022137 75 206 0.0 0.0 0.00 0.00 0.00 71 1006.3
20260505021633 75 173 0.0 0.0 0.00 0.00 0.00 70 1006.6
20260505021130 75 190 0.0 0.0 0.00 0.00 0.00 71 1006.7
20260505020626 75 239 2.0 2.0 0.00 0.00 0.00 71 1006.5
20260505020122 75 307 0.0 1.0 0.00 0.00 0.00 70 1006.3
20260505015619 75 203 0.0 0.0 0.00 0.00 0.00 70 1006.7
20260505015111 75 190 1.0 1.0 0.00 0.00 0.00 70 1006.4
20260505014607 76 195 0.0 0.0 0.00 0.00 0.00 69 1006.5
20260505014104 75 192 0.0 0.0 0.00 0.00 0.00 70 1006.6
20260505013602 76 199 0.0 0.0 0.00 0.00 0.00 69 1006.6
20260505013059 76 199 0.0 0.0 0.00 0.00 0.00 69 1006.6
20260505012557 76 146 1.0 2.0 0.00 0.00 0.00 69 1006.6
20260505012054 76 208 0.0 0.0 0.00 0.00 0.00 69 1006.7
20260505011549 76 205 0.0 0.0 0.00 0.00 0.00 69 1006.6
20260505011047 77 206 0.0 0.0 0.00 0.00 0.00 68 1006.5
20260505010542 77 229 2.0 2.0 0.00 0.00 0.00 67 1006.5
20260505010039 77 193 0.0 0.0 0.00 0.00 0.00 67 1006.5
20260505005535 77 46 1.0 1.0 0.00 0.00 0.00 67 1006.7
20260505005032 77 170 1.0 2.0 0.00 0.00 0.00 66 1006.6
20260505004529 77 188 0.0 0.0 0.00 0.00 0.00 66 1006.5
20260505004026 77 175 2.0 3.0 0.00 0.00 0.00 66 1006.6
20260505003523 77 199 0.0 1.0 0.00 0.00 0.00 65 1006.5
20260505003020 77 171 2.0 2.0 0.00 0.00 0.00 65 1006.8
20260505002515 77 172 0.0 0.0 0.00 0.00 0.00 66 1006.6
20260505002014 78 217 1.0 1.0 0.00 0.00 0.00 66 1006.7
20260505001511 78 188 0.0 1.0 0.00 0.00 0.00 65 1006.9
20260505001008 78 231 1.0 1.0 0.00 0.00 0.00 65 1007.0
20260505000506 78 193 1.0 2.0 0.00 0.00 0.00 65 1006.7
20260505000003 78 194 0.0 0.0 0.00 0.00 0.00 64 1006.9
20260504235459 78 215 3.0 4.0 0.00 0.00 0.00 64 1006.9
20260504234956 78 186 0.0 0.0 0.00 0.00 0.00 64 1007.1
20260504234453 78 186 0.0 1.0 0.00 0.00 0.00 64 1007.2
20260504233949 78 203 2.0 3.0 0.00 0.00 0.00 63 1007.2
20260504233445 78 240 2.0 3.0 0.00 0.00 0.00 63 1007.1
20260504232943 78 197 0.0 0.0 0.00 0.00 0.00 63 1007.0
20260504232439 78 198 2.0 2.0 0.00 0.00 0.00 63 1007.1
20260504231937 79 208 0.0 1.0 0.00 0.00 0.00 63 1007.1
20260504231433 79 197 1.0 2.0 0.00 0.00 0.00 62 1007.0
20260504230929 79 180 1.0 1.0 0.00 0.00 0.00 63 1007.2
20260504230426 79 211 0.0 0.0 0.00 0.00 0.00 62 1007.3
20260504225925 79 172 1.0 2.0 0.00 0.00 0.00 62 1007.4
20260504225422 79 184 1.0 1.0 0.00 0.00 0.00 62 1007.1
20260504224919 80 179 2.0 3.0 0.00 0.00 0.00 62 1007.4
20260504224415 80 174 1.0 2.0 0.00 0.00 0.00 61 1007.3
20260504223913 80 240 0.0 1.0 0.00 0.00 0.00 61 1007.3
20260504223408 80 179 1.0 2.0 0.00 0.00 0.00 62 1007.4
20260504222904 80 187 2.0 2.0 0.00 0.00 0.00 61 1007.3
20260504222401 79 171 0.0 1.0 0.00 0.00 0.00 61 1007.4
20260504221900 79 176 1.0 2.0 0.00 0.00 0.00 61 1007.4
20260504221356 80 197 1.0 2.0 0.00 0.00 0.00 61 1007.7
20260504220854 80 189 0.0 0.0 0.00 0.00 0.00 61 1007.6
20260504220350 80 188 0.0 0.0 0.00 0.00 0.00 61 1007.8
20260504215847 80 198 0.0 1.0 0.00 0.00 0.00 60 1007.7
20260504215343 79 189 1.0 1.0 0.00 0.00 0.00 60 1007.9
20260504214840 80 176 3.0 3.0 0.00 0.00 0.00 59 1007.8
20260504214337 80 207 1.0 2.0 0.00 0.00 0.00 59 1007.7
20260504213833 80 177 2.0 3.0 0.00 0.00 0.00 60 1008.0
20260504213329 80 255 1.0 1.0 0.00 0.00 0.00 60 1008.1
20260504212827 80 171 1.0 2.0 0.00 0.00 0.00 59 1008.0
20260504212323 81 197 2.0 3.0 0.00 0.00 0.00 58 1008.3
20260504211821 80 226 1.0 1.0 0.00 0.00 0.00 59 1008.3
20260504211316 80 198 0.0 0.0 0.00 0.00 0.00 60 1008.4
20260504210814 80 194 0.0 0.0 0.00 0.00 0.00 60 1008.5
20260504210311 80 253 0.0 0.0 0.00 0.00 0.00 60 1008.4
20260504205808 80 203 0.0 1.0 0.00 0.00 0.00 60 1008.7
20260504205306 80 193 4.0 6.0 0.00 0.00 0.00 60 1008.9
20260504204804 79 192 2.0 2.0 0.00 0.00 0.00 60 1008.8
20260504204302 80 196 2.0 2.0 0.00 0.00 0.00 60 1008.9
20260504203801 80 219 1.0 2.0 0.00 0.00 0.00 60 1009.2
20260504203258 80 204 1.0 1.0 0.00 0.00 0.00 60 1009.0
20260504202758 80 200 0.0 0.0 0.00 0.00 0.00 60 1009.4
20260504202256 79 225 0.0 0.0 0.00 0.00 0.00 60 1009.4
20260504201753 79 312 1.0 2.0 0.00 0.00 0.00 59 1009.6
20260504201250 79 208 2.0 3.0 0.00 0.00 0.00 59 1009.6
20260504200748 79 201 1.0 2.0 0.00 0.00 0.00 58 1009.8
20260504200243 79 190 0.0 0.0 0.00 0.00 0.00 59 1009.9
20260504195740 79 186 1.0 2.0 0.00 0.00 0.00 57 1009.9
20260504195236 79 228 1.0 1.0 0.00 0.00 0.00 58 1010.4
20260504194733 79 204 1.0 1.0 0.00 0.00 0.00 57 1010.0
20260504194229 79 211 1.0 4.0 0.00 0.00 0.00 57 1010.2
20260504193726 79 223 0.0 1.0 0.00 0.00 0.00 59 1010.2
20260504193223 79 199 0.0 0.0 0.00 0.00 0.00 58 1010.3
20260504192722 79 195 1.0 2.0 0.00 0.00 0.00 58 1010.4
20260504192219 78 175 2.0 3.0 0.00 0.00 0.00 57 1010.6
20260504191718 78 204 0.0 1.0 0.00 0.00 0.00 58 1010.7
20260504191214 79 167 2.0 3.0 0.00 0.00 0.00 56 1010.6
20260504190709 79 299 4.0 6.0 0.00 0.00 0.00 55 1010.6
20260504190206 78 150 1.0 3.0 0.00 0.00 0.00 56 1010.8
20260504185703 78 201 1.0 1.0 0.00 0.00 0.00 57 1010.8
20260504185159 78 188 0.0 0.0 0.00 0.00 0.00 57 1010.8
20260504184656 78 194 3.0 4.0 0.00 0.00 0.00 56 1010.9
20260504184150 78 221 2.0 4.0 0.00 0.00 0.00 55 1010.9
20260504183647 77 179 2.0 2.0 0.00 0.00 0.00 58 1011.0
20260504183145 78 187 3.0 3.0 0.00 0.00 0.00 55 1011.0
20260504182643 77 185 2.0 3.0 0.00 0.00 0.00 56 1011.1
20260504182140 77 171 1.0 2.0 0.00 0.00 0.00 55 1011.5
20260504181637 77 203 1.0 1.0 0.00 0.00 0.00 55 1011.4
20260504181135 77 208 0.0 1.0 0.00 0.00 0.00 56 1011.5
20260504180634 77 215 0.0 0.0 0.00 0.00 0.00 55 1011.5
20260504180132 77 177 4.0 7.0 0.00 0.00 0.00 53 1011.3
20260504175629 77 235 1.0 2.0 0.00 0.00 0.00 54 1011.6
20260504175125 77 195 0.0 1.0 0.00 0.00 0.00 53 1011.9
20260504174624 77 201 0.0 1.0 0.00 0.00 0.00 52 1011.9
20260504174120 77 171 0.0 1.0 0.00 0.00 0.00 55 1011.9
20260504173617 77 193 1.0 2.0 0.00 0.00 0.00 53 1011.8
20260504173115 77 192 1.0 1.0 0.00 0.00 0.00 53 1012.0
20260504172611 77 286 1.0 1.0 0.00 0.00 0.00 53 1012.1
20260504172108 76 192 0.0 0.0 0.00 0.00 0.00 51 1012.0
20260504171604 76 173 1.0 1.0 0.00 0.00 0.00 53 1012.2
20260504171101 76 196 1.0 2.0 0.00 0.00 0.00 52 1012.2
20260504170557 76 217 1.0 2.0 0.00 0.00 0.00 53 1012.4
20260504150941 70 174 2.0 3.0 0.00 0.00 0.00 65 1013.6
20260504150437 70 178 1.0 2.0 0.00 0.00 0.00 66 1013.8
20260504140904 67 135 2.0 3.0 0.00 0.00 0.00 71 1014.2
20260504140400 67 176 2.0 2.0 0.00 0.00 0.00 71 1014.1
20260504130325 64 176 0.0 0.0 0.00 0.00 0.00 76 1014.1